{"data":{"norad_id":59956,"epoch":"2026-05-24T17:42:17.754336Z","epoch_age_seconds":87874,"freshness":"FRESH","line1":"1 59956U 24107M   26144.73770549  .00001838  00000+0  20018-4 0  9991","line2":"2 59956  53.1593 236.1182 0001192  91.4516 268.6639 15.69718331114026","mean_motion":15.69718331,"eccentricity":0.0001192,"inclination_deg":53.1593,"raan_deg":236.1182,"arg_perigee_deg":91.4516,"mean_anomaly_deg":268.6639,"bstar":2.0018e-5,"rev_number":11402,"period_min":91.736203340547,"perigee_km":358.89975987484,"apogee_km":360.50606090948,"semimajor_km":6737.8399103922,"source":"CELESTRAK","updated_at":"2026-05-25T13:38:19.128808Z"}}